Weather in Bucheon

South Korea     37˚29′36″N   126˚46′45″E
temp.,
°C
wind,
m/s
gust,
m/s
humid.,
%
clouds,
%
prec.,
mm/h
press.,
hPa
HPBL,
m
16 january, sat
sat1600:00−1˚nw476991 0.0 1020529
03:00−3˚nw476550 0.0 1021476
06:00−5˚nw475756 0.0 1022637
09:00−6˚nw575428 0.0 1025598
12:00−4˚wnw46440 0.0 1026810
15:00−3˚nw57350 0.0 10241096
18:00−4˚nw68380 0.0 10271083
21:00−6˚nnw69453 0.0 1027915
17 january, sun
sun1700:00−7˚nnw594231 0.0 1028855
03:00−7˚nw584916 0.0 1029850
06:00−8˚nw58520 0.0 1029788
09:00−8˚nw48480 0.0 1030681
12:00−5˚nw36430 0.0 1029788
15:00−3˚sw23490 0.0 1025723
18:00−4˚sse228364 0.3 1025202
21:00−2˚wnw367954 0.4 1024629
18 january, mon
mon1800:00−2˚w4883100 0.9 1023694
03:00−1˚wsw4863100 1.3 1020540
06:00+1˚wsw71161100 0.2 1017857
09:00+2˚w71457100 0.5 10161427
12:00−3˚nw91355100 0.1 1017987
15:00−6˚nw10163950 0.1 10211457
18:00−9˚nw812360 0.0 10261206
21:00−11˚nnw710380 0.0 1029964
19 january, tue
tue1900:00−12˚nw69370 0.0 1031714
03:00−12˚nnw46390 0.0 1032586
06:00−12˚nnw35380 0.0 1032481
09:00−12˚n23340 0.0 1034376
12:00−8˚nne11230 0.0 1034502
15:00−6˚nnw11180 0.0 1032500
18:00−6˚nne12180 0.0 1033407
21:00−6˚ne01210 0.0 1033196
20 january, wed
wed2000:00−6˚ne12250 0.0 103397
03:00−6˚ne12260 0.0 103393
06:00−6˚ene22330 0.0 103289
09:00−6˚ne22330 0.0 1032116
12:00−2˚ene22272 0.0 1031284
15:00ne112634 0.0 1029321
18:00−1˚n112994 0.0 102944
21:00−1˚ene113080 0.0 102932